Disclaimer

Please do not use the information listed here in-flight or in-navigation, as they are not provided to us by the airports but are provided by volunteers, so they might be outdated.

Search


Regions


Airport information page

Radio informations:
Tower (TWR) - 121.15 MHz
APRON - 121.9 MHz
MUNCHEN INFO - 120.65 MHz
Ground (GND) - 121.75 MHz
MUNCHEN RADAR - 132.3 MHz

Airport informations:
Latitude: 50° 58' 47.32" N
Longitude: 010° 57' 29.18" E
Elevation: 1036 feet - 316 meters
Operating hours: Remarks
Operating agency: Civil government, landing fees and diplomatic clearance may be required
Timezone: UTC+1(+2DT) - Last Sunday in March to last Sunday in October
Fuel: Jet A1, without icing nhibitor.

100/130 MIL Spec, low lead, aviation gasoline (BLUE)

Runway information:
10/28 - 8530 x 164 feet< - >2600 x 50 meters

Recent METARs:
EDDE 221850Z 20005KT CAVOK M07/M10 Q1004 NOSIG
EDDE 221920Z 20005KT CAVOK M08/M10 Q1004 NOSIG
EDDE 221950Z 20006KT CAVOK M08/M11 Q1004 NOSIG

Airport on the map: